Theta_e
324 314 315 307 297 294 290 294 299 300 300 307 312 316 318 318 315 308 336 345 351 352 359 361 362 362 362 361 361 361 360 361 361 361 360 360 360 361 361 361 360 358 356 353 350 347 344 344 345
316 313 310 301 292 288 290 296 297 300 303 304 304 311 313 313 330 333 335 350 351 355 358 358 362 361 361 360 360 360 360 360 360 360 360 360 361 361 360 360 359 356 354 350 347 344 341 341 339
309 313 304 297 290 290 293 298 298 303 305 305 304 313 314 316 325 333 340 351 354 354 357 358 362 361 361 360 359 359 359 359 359 359 359 359 360 359 359 359 358 354 351 348 344 342 343 342 341
307 306 303 296 293 297 298 303 303 304 306 309 308 309 315 320 321 338 349 353 352 353 355 361 362 360 360 360 359 358 358 359 359 359 359 359 359 358 358 358 357 354 350 347 343 344 344 343 342
306 301 294 292 295 300 304 306 308 303 303 307 309 308 313 319 340 346 350 351 350 352 354 359 361 360 360 359 359 358 358 358 359 359 359 358 358 358 357 357 355 354 352 347 343 344 345 344 344
299 299 291 289 296 302 305 306 307 306 305 307 308 308 309 315 336 341 348 348 351 351 354 357 360 360 359 359 358 357 357 357 358 358 358 358 357 357 357 356 355 353 351 349 346 346 344 343 342
297 294 290 291 296 299 304 306 304 304 306 305 308 306 309 311 325 340 344 346 350 353 354 355 356 358 359 359 358 357 356 356 356 357 357 357 356 357 356 356 354 354 352 350 349 346 345 343 342
298 295 289 292 295 297 304 304 303 303 305 310 310 306 306 312 319 339 339 342 346 351 352 352 354 355 355 355 358 357 356 356 356 356 356 356 356 356 356 353 353 353 351 350 349 347 346 344 343
301 291 288 292 295 298 303 299 303 307 304 308 308 307 313 316 329 335 333 336 342 349 351 352 352 354 354 353 355 357 357 357 356 356 356 353 351 352 351 351 352 353 351 350 349 348 346 345 345
296 288 291 296 298 298 299 298 301 301 302 303 304 309 313 313 317 332 332 332 338 343 348 350 350 352 352 353 352 352 353 354 353 352 352 349 347 347 348 349 352 353 352 350 349 348 348 347 340
292 289 293 298 300 300 299 299 302 299 298 302 302 305 308 312 311 321 332 333 336 341 346 349 349 351 350 350 351 352 352 352 352 351 350 346 345 346 347 344 347 346 349 343 347 345 344 342 340
291 296 297 295 299 297 298 301 300 300 301 305 305 306 308 308 309 314 327 334 335 338 343 348 349 349 350 349 349 350 350 350 350 351 351 347 342 341 341 341 340 340 339 339 338 339 340 339 340
289 292 294 296 295 295 298 297 298 298 303 305 305 306 306 307 308 309 316 331 337 338 341 346 348 347 349 348 349 349 348 349 348 349 349 348 343 339 339 338 337 336 336 337 337 337 337 337 337
292 292 293 294 294 295 295 297 297 299 303 302 303 303 303 307 309 308 309 321 338 340 340 344 346 347 348 349 348 348 349 349 349 349 349 348 345 341 338 336 335 334 335 336 337 337 337 336 336
292 289 292 292 293 293 294 292 294 299 301 300 301 302 302 304 308 309 310 324 339 340 341 341 344 346 346 347 347 347 348 349 348 348 350 348 345 341 338 336 335 335 335 336 337 338 337 336 336
288 286 283 290 292 295 293 287 295 298 297 297 299 300 302 302 306 309 309 318 332 338 339 341 343 343 344 345 345 346 346 348 347 347 347 348 347 344 340 337 335 335 336 336 336 337 336 336 337
284 280 282 288 292 292 290 288 295 298 296 296 297 298 299 301 303 305 310 310 319 333 338 338 340 339 340 342 343 343 344 346 345 343 343 344 346 345 341 338 337 335 336 337 337 337 338 337 336
281 282 284 285 291 289 289 289 293 295 295 296 296 296 297 299 301 304 306 310 312 322 330 338 339 339 339 339 341 340 338 340 340 340 342 342 344 345 341 339 335 337 337 335 337 337 338 337 336
288 286 285 289 293 289 289 290 292 293 293 293 294 295 296 297 300 302 304 307 309 317 321 329 336 337 337 336 337 338 337 336 338 340 341 341 341 343 342 341 340 337 336 337 338 337 337 336 335
288 285 285 289 292 289 289 290 291 292 292 294 294 295 296 296 298 300 301 304 312 314 320 324 333 335 337 339 339 339 339 338 338 339 340 341 341 342 341 340 341 342 340 340 338 337 334 335 332
287 285 286 287 292 291 289 289 289 292 293 294 295 296 296 297 297 299 301 308 310 312 317 322 327 332 338 339 337 335 337 336 334 336 338 340 342 343 343 342 340 340 342 341 340 338 336 335 333
284 290 291 292 288 283 289 282 289 291 291 292 294 295 295 296 298 298 300 303 311 313 315 319 324 326 333 337 337 335 334 334 334 334 337 338 340 342 345 345 343 342 342 340 341 340 338 335 331
288 293 293 292 287 283 285 280 286 290 290 291 295 294 296 297 297 298 300 302 308 313 314 316 318 319 323 334 338 336 332 333 332 332 333 335 337 339 339 342 344 342 342 341 341 339 338 336 336
296 292 289 287 283 278 284 282 283 286 289 291 295 296 297 298 297 299 300 301 305 311 312 313 316 316 317 321 325 329 329 327 326 326 328 330 333 335 337 338 338 336 337 337 339 339 337 336 336
290 285 278 276 277 279 285 282 285 290 294 294 296 298 298 296 297 298 298 299 302 308 310 312 312 312 313 315 317 318 319 319 320 321 322 323 325 328 332 336 336 337 337 340 340 336 335 335 334
286 286 279 273 275 280 285 280 284 292 294 297 298 297 297 297 297 297 299 299 301 307 310 313 311 311 312 313 313 315 315 315 316 317 318 320 320 322 326 328 335 337 338 338 338 338 336 335 335
288 284 288 281 279 275 280 284 290 293 294 296 296 298 297 298 298 297 300 301 302 307 311 313 312 313 314 315 315 315 316 317 318 319 320 320 321 322 324 327 328 330 337 338 337 335 335 335 335
291 292 282 279 271 271 277 279 282 287 290 295 295 296 297 298 298 298 299 301 302 305 309 312 313 311 314 316 314 315 314 316 317 318 319 320 321 324 325 326 328 329 330 332 331 331 334 335 336
287 285 284 282 279 272 274 277 287 289 292 292 294 297 298 299 299 299 301 303 301 304 304 307 309 310 312 313 314 314 314 316 317 318 319 319 321 323 326 328 330 328 328 328 329 330 331 333 334
289 286 285 277 276 283 280 280 292 290 291 293 294 297 298 301 300 299 302 304 306 306 303 306 307 309 310 312 314 313 314 314 316 317 318 321 323 325 326 325 322 322 323 324 324 324 326 328 328
Wind_Speed
8 7 1 5 5 6 2 5 2 9 8 2 3 0 4 4 3 5 5 3 9 14 11 13 17 17 16 16 15 16 18 18 19 20 20 19 18 17 16 15 13 14 13 13 12 12 13 12 11
5 5 5 3 5 3 5 2 3 4 6 10 3 0 4 3 2 2 4 5 10 13 11 12 16 18 17 17 17 16 15 16 16 18 18 18 17 17 16 14 14 13 13 12 11 11 12 12 12
4 4 4 5 3 5 5 4 3 6 9 5 2 2 2 2 2 5 1 12 13 12 12 10 17 18 18 18 19 19 18 16 15 16 16 16 15 15 15 14 12 13 12 11 10 9 9 10 10
4 5 5 4 6 5 4 1 3 7 7 7 3 4 2 3 2 3 12 13 13 12 8 12 15 17 18 18 19 19 20 19 17 16 16 15 14 13 12 12 12 11 11 11 9 7 7 8 8
4 3 2 1 4 4 5 3 4 2 4 7 10 1 0 2 5 10 13 13 13 12 7 12 15 15 18 17 18 20 20 21 18 18 17 16 14 13 12 12 11 10 10 10 9 8 6 5 6
4 3 3 4 5 3 4 4 5 3 3 6 8 6 3 2 6 8 10 10 10 12 8 8 14 14 15 16 15 16 19 21 20 18 17 16 14 13 12 12 11 11 11 10 9 8 7 5 4
7 4 6 3 5 4 3 4 3 5 2 3 4 3 5 4 4 7 10 10 10 9 10 10 8 11 15 15 15 14 15 17 19 18 16 15 14 13 13 12 12 11 11 11 10 9 8 6 5
5 5 4 4 4 9 1 4 4 5 3 7 7 4 7 7 9 9 7 6 9 10 10 10 12 8 7 9 15 14 13 14 16 16 15 14 14 13 12 11 11 11 10 9 9 8 7 6 5
4 4 3 5 6 6 4 5 1 4 6 1 2 4 7 5 4 8 7 5 6 8 10 13 14 10 10 7 11 13 15 13 14 14 15 12 7 8 11 10 12 11 10 9 8 7 7 5 4
4 4 9 5 4 6 3 2 7 3 6 6 6 7 5 5 4 7 12 12 11 13 15 14 15 13 9 9 8 8 8 6 5 6 8 6 6 6 7 9 11 10 9 8 7 7 6 5 2
3 5 5 3 5 5 5 7 5 5 9 10 9 6 11 8 4 3 6 13 23 17 12 15 15 14 11 9 8 5 4 5 4 5 5 4 4 4 4 2 3 3 6 3 4 3 3 3 3
3 7 5 3 5 4 8 5 10 8 12 9 10 7 9 8 8 9 9 9 8 15 15 13 14 14 12 7 8 7 7 6 6 6 9 6 3 3 4 4 4 3 3 4 3 2 3 4 4
4 3 2 6 7 6 9 11 12 10 8 14 12 11 11 11 10 8 7 4 5 9 13 15 13 13 12 8 8 8 9 8 10 10 11 7 6 6 3 2 2 2 3 3 4 3 3 4 4
6 3 4 5 6 5 6 10 5 2 5 10 9 12 9 11 12 6 6 8 9 10 13 14 14 11 11 12 12 10 9 11 11 11 11 11 6 5 6 5 4 3 2 2 3 4 4 4 3
1 4 6 4 5 6 5 6 6 8 7 9 11 10 6 9 8 11 11 10 14 13 15 17 18 17 15 15 11 9 9 9 11 10 13 13 11 8 7 4 5 5 5 4 3 3 2 3 3
4 5 3 6 3 7 6 8 7 8 3 7 11 9 11 8 10 10 9 10 9 7 13 15 15 19 18 17 13 9 8 9 9 7 5 7 6 7 7 7 8 6 5 7 5 4 3 4 4
7 1 0 8 3 4 3 5 7 8 9 9 7 9 9 12 9 10 11 10 10 12 13 13 14 16 18 15 10 11 11 10 8 6 5 7 4 4 5 5 6 5 4 4 4 4 3 3 3
2 1 3 5 6 3 10 13 10 13 8 10 9 8 8 9 15 14 10 12 14 10 9 12 13 14 15 10 7 5 5 6 5 7 8 12 10 11 8 6 4 3 3 4 3 4 3 3 2
3 4 5 7 12 4 11 12 11 10 7 11 11 10 9 10 11 11 13 8 10 6 7 8 12 12 10 9 10 7 10 8 7 7 9 8 9 13 11 7 4 4 5 8 7 4 4 3 2
5 4 7 7 8 5 9 16 9 6 7 9 9 10 12 9 9 12 10 5 9 15 14 9 12 10 12 10 10 4 7 4 5 6 8 8 9 9 8 10 6 4 4 6 5 5 2 2 3
5 5 5 8 4 5 8 14 4 3 6 8 9 10 9 11 11 10 10 7 6 10 14 15 14 13 12 10 6 3 4 3 4 5 7 9 7 8 9 7 7 8 5 9 8 8 7 3 1
6 7 7 4 1 5 3 19 10 7 9 5 11 11 11 11 10 9 9 10 8 11 7 9 10 13 12 12 10 8 6 6 4 5 4 6 9 8 9 10 10 12 12 9 10 6 5 7 5
10 5 7 3 4 2 5 10 5 6 11 12 14 10 13 12 11 11 10 10 11 8 8 6 6 7 7 9 12 9 5 4 3 4 5 5 6 8 9 9 13 13 10 12 21 6 5 6 4
2 2 3 4 2 4 9 9 1 2 7 6 11 14 13 16 10 11 11 10 9 4 7 7 8 7 7 9 8 9 9 6 4 3 3 3 3 4 6 7 6 7 8 8 6 4 4 6 9
5 6 4 4 3 13 4 5 10 10 14 7 11 19 17 11 12 10 12 10 11 9 9 8 7 8 8 8 8 8 9 8 7 5 4 4 2 3 6 5 6 5 5 4 3 4 2 5 6
5 7 6 7 9 15 3 8 7 8 6 4 8 7 11 10 10 12 14 12 12 12 12 14 12 8 7 7 7 6 8 5 5 6 4 4 3 3 4 5 3 3 3 3 2 3 6 8 11
4 4 1 1 2 3 6 7 7 11 7 6 9 9 12 12 12 11 10 8 8 8 14 18 16 12 12 11 8 7 7 7 7 6 5 4 4 3 4 4 5 5 4 3 3 2 2 5 6
4 5 4 3 4 6 4 7 10 10 8 9 11 12 15 11 9 9 9 5 4 2 3 6 8 9 8 8 7 7 8 7 6 5 5 5 5 5 5 4 4 4 5 4 4 1 1 2 3
1 1 3 2 4 4 7 6 6 8 5 7 12 12 15 15 11 8 8 5 6 5 6 4 1 5 6 7 6 7 7 7 6 5 5 5 4 5 5 5 6 6 5 5 4 3 2 1 3
3 7 7 5 5 4 4 15 9 7 3 6 9 13 14 16 14 8 7 6 7 6 5 2 1 4 5 2 4 6 6 7 7 6 6 5 6 6 7 6 6 5 4 4 4 2 1 2 3
Wind_Direction
323 324 57 42 56 63 283 259 265 327 349 164 301 98 129 101 153 222 330 150 126 144 153 150 149 145 144 139 132 127 126 129 132 133 133 137 139 140 142 143 144 147 146 143 140 133 126 120 118
323 340 37 80 92 89 265 249 351 279 275 301 223 241 58 74 104 124 106 152 143 140 151 150 151 144 146 141 136 131 128 127 130 132 136 140 142 144 146 146 150 151 149 145 141 134 129 127 129
335 48 68 93 120 179 210 173 253 292 295 319 6 74 60 331 244 182 99 136 132 139 153 158 152 146 148 147 143 141 137 135 136 138 141 146 147 147 148 149 152 154 150 145 139 135 135 134 134
26 12 34 96 224 255 243 89 125 333 336 353 314 42 347 244 308 63 126 134 138 142 142 160 157 151 148 152 148 146 145 144 146 148 149 149 148 147 148 151 155 156 152 145 142 142 147 142 139
31 60 45 320 249 256 268 341 3 15 303 312 343 336 15 90 85 122 133 144 143 150 146 157 163 157 151 155 155 153 152 148 151 153 154 152 151 153 155 159 165 161 154 152 152 155 155 148 146
47 98 85 239 253 231 315 302 313 138 268 308 356 333 273 358 140 154 138 143 143 150 148 152 165 162 157 157 160 160 157 153 153 158 157 155 157 160 166 170 172 169 162 160 160 165 164 171 168
125 92 196 206 281 292 208 331 46 331 91 4 307 263 281 296 204 145 140 130 135 144 154 162 164 171 162 161 162 167 167 161 158 159 160 159 163 168 174 178 179 176 172 167 166 174 178 185 189
107 102 151 220 204 273 239 13 303 18 30 320 3 345 309 252 162 119 104 111 133 150 160 172 179 168 167 167 167 171 176 172 165 162 160 163 169 173 182 187 189 184 182 174 173 185 190 196 211
127 74 204 223 185 237 314 354 318 300 275 329 253 279 274 324 127 107 115 115 133 167 177 180 183 177 167 166 174 174 179 185 176 170 168 166 176 183 190 194 196 192 187 181 185 198 206 212 241
119 143 222 206 212 279 291 288 300 294 305 287 292 307 332 29 24 170 171 177 177 185 185 186 187 182 170 173 176 171 172 183 183 183 178 173 182 190 192 198 204 201 192 187 192 213 228 228 221
147 196 214 244 233 264 277 303 246 266 270 250 278 270 310 293 177 257 267 196 187 186 181 189 186 186 175 182 172 173 173 165 183 187 185 183 180 192 200 202 197 181 200 187 194 215 234 243 250
173 230 191 241 238 259 264 284 275 223 260 256 253 245 273 268 240 209 216 231 196 187 184 187 185 183 181 173 183 175 176 177 188 192 200 188 184 214 211 207 207 179 172 183 195 210 230 249 256
187 264 263 271 288 240 259 248 253 276 269 265 267 267 240 256 250 249 219 226 184 193 190 185 183 182 181 180 185 185 186 189 195 198 207 193 192 190 197 236 223 218 172 190 196 202 224 255 258
191 217 256 269 247 243 238 265 163 325 236 272 261 266 235 232 238 243 209 213 200 188 191 179 187 180 183 186 188 189 198 186 198 199 201 199 201 200 205 186 212 215 216 215 218 202 208 226 243
16 332 338 251 244 241 168 292 240 260 280 262 273 275 267 239 263 209 222 203 198 203 187 184 187 178 182 193 192 192 199 196 200 203 201 198 188 198 191 224 219 194 175 212 226 245 226 251 243
40 42 5 286 318 270 140 281 280 297 274 266 280 288 290 266 235 252 240 219 210 201 194 189 193 186 186 191 189 193 195 198 207 198 197 210 224 208 207 214 211 207 198 182 183 210 227 229 232
10 200 240 311 230 272 209 280 287 314 312 285 254 271 281 293 274 246 239 234 222 208 203 192 193 190 191 195 189 196 196 201 193 170 162 160 191 222 263 266 266 188 187 209 173 195 201 221 238
198 214 238 247 281 189 278 271 262 278 284 279 287 272 266 269 273 275 241 230 229 215 207 205 196 194 187 184 182 180 179 201 183 180 194 175 188 190 191 227 261 273 258 191 178 198 184 248 243
217 202 228 257 267 245 263 273 276 263 290 284 292 293 277 270 267 268 275 227 217 217 192 200 198 188 172 169 180 187 202 182 191 199 201 190 198 209 192 205 188 197 238 249 191 169 182 214 197
211 246 263 272 261 170 274 280 245 226 239 239 250 278 288 297 290 295 284 263 220 210 204 191 206 189 189 186 191 181 178 176 176 184 201 203 194 198 197 173 173 195 240 275 236 134 193 131 191
229 190 239 225 310 297 290 288 275 229 223 254 261 245 261 253 280 290 292 269 244 245 202 196 196 188 197 177 146 95 102 90 120 189 207 216 197 192 194 198 173 191 192 239 234 168 161 154 209
280 204 229 227 102 262 359 288 301 256 268 251 259 263 257 264 270 264 271 284 222 232 264 233 190 179 184 168 173 176 178 162 181 168 171 189 198 200 200 199 202 219 198 219 242 182 155 135 198
231 179 192 215 221 27 277 280 281 345 293 268 280 270 268 262 257 256 260 262 269 190 202 219 179 161 174 173 180 178 157 140 146 144 166 181 197 205 199 198 199 207 199 196 208 188 158 208 148
92 105 53 47 116 216 236 236 101 263 243 292 309 292 278 282 272 261 262 265 261 210 181 182 186 184 171 170 170 168 165 154 149 155 176 188 203 209 208 203 200 207 215 223 227 238 253 223 217
88 73 313 317 268 269 237 276 257 274 286 305 318 305 295 279 285 268 273 263 258 207 191 175 181 191 179 170 165 161 155 154 162 162 183 203 199 218 220 212 205 216 220 229 165 103 79 332 279
172 160 174 243 268 282 163 252 260 262 264 294 285 305 315 318 300 279 268 262 247 222 192 180 178 178 179 162 167 164 155 156 164 169 173 190 199 220 213 190 201 232 233 228 199 195 198 197 222
181 184 138 356 245 324 222 297 311 272 275 287 321 339 325 318 320 299 295 279 257 222 203 188 178 177 172 179 165 172 165 154 168 172 165 174 187 227 216 197 179 196 162 174 187 201 206 211 228
143 143 64 11 297 267 257 270 262 283 291 314 315 326 317 311 323 318 321 324 64 64 152 155 163 177 184 173 169 171 173 162 146 139 177 185 184 185 176 162 140 108 103 103 104 54 294 284 290
87 126 69 133 165 221 307 254 226 254 289 312 319 325 323 319 294 297 290 29 23 79 85 68 221 166 209 205 184 170 171 164 144 173 187 178 180 182 163 148 136 126 116 105 95 82 352 326 286
153 191 156 152 237 226 227 273 245 287 340 339 323 326 326 324 308 291 283 46 46 4 23 153 196 261 232 338 184 194 187 152 164 187 191 183 182 170 161 153 141 137 131 120 108 83 324 290 294